Time,TemperatureF,DewpointF,PressureIn,WindDirection,WindDirectionDegrees,WindSpeedMPH,WindSpeedGustMPH,Humidity,HourlyPrecipIn,Conditions,Clouds,dailyrainin,SoftwareType,DateUTC
2013-03-24 00:00:00,3.0,-99.9,-100.00,WSW,246,6.0,10.0,-999,-99.99,,,-99.99,,2013-03-24 06:00:00,
2013-03-24 00:32:00,3.0,-99.9,-100.00,WSW,246,6.0,10.0,-999,-99.99,,,-99.99,,2013-03-24 06:32:00,
2013-03-24 00:43:00,3.0,-99.9,-100.00,WSW,246,6.0,10.0,-999,-99.99,,,-99.99,,2013-03-24 06:43:00,
2013-03-24 00:52:00,3.0,-99.9,-100.00,WSW,246,6.0,10.0,-999,-99.99,,,-99.99,,2013-03-24 06:52:00,
2013-03-24 01:00:00,3.0,-99.9,-100.00,WSW,241,7.0,13.0,-999,-99.99,,,-99.99,,2013-03-24 07:00:00,
2013-03-24 01:32:00,3.0,-99.9,-100.00,WSW,241,7.0,13.0,-999,-99.99,,,-99.99,,2013-03-24 07:32:00,
2013-03-24 01:42:00,3.0,-99.9,-100.00,WSW,241,7.0,13.0,-999,-99.99,,,-99.99,,2013-03-24 07:42:00,
2013-03-24 01:53:00,3.0,-99.9,-100.00,WSW,241,7.0,13.0,-999,-99.99,,,-99.99,,2013-03-24 07:53:00,
2013-03-24 02:00:00,3.0,-99.9,-100.00,WSW,240,8.0,13.0,-999,-99.99,,,-99.99,,2013-03-24 08:00:00,
2013-03-24 02:32:00,3.0,-99.9,-100.00,WSW,240,8.0,13.0,-999,-99.99,,,-99.99,,2013-03-24 08:32:00,
2013-03-24 02:42:00,3.0,-99.9,-100.00,WSW,240,8.0,13.0,-999,-99.99,,,-99.99,,2013-03-24 08:42:00,
2013-03-24 02:53:00,3.0,-99.9,-100.00,WSW,240,8.0,13.0,-999,-99.99,,,-99.99,,2013-03-24 08:53:00,
2013-03-24 03:00:00,3.0,-99.9,-100.00,WSW,239,8.0,12.0,-999,-99.99,,,-99.99,,2013-03-24 09:00:00,
2013-03-24 03:33:00,3.0,-99.9,-100.00,WSW,239,8.0,12.0,-999,-99.99,,,-99.99,,2013-03-24 09:33:00,
2013-03-24 03:43:00,3.0,-99.9,-100.00,WSW,239,8.0,12.0,-999,-99.99,,,-99.99,,2013-03-24 09:43:00,
2013-03-24 03:53:00,3.0,-99.9,-100.00,WSW,239,8.0,12.0,-999,-99.99,,,-99.99,,2013-03-24 09:53:00,
2013-03-24 05:00:00,3.0,-99.9,-100.00,WSW,244,7.0,14.0,-999,-99.99,,,-99.99,,2013-03-24 11:00:00,
2013-03-24 05:33:00,3.0,-99.9,-100.00,WSW,244,7.0,14.0,-999,-99.99,,,-99.99,,2013-03-24 11:33:00,
2013-03-24 05:43:00,3.0,-99.9,-100.00,WSW,244,7.0,14.0,-999,-99.99,,,-99.99,,2013-03-24 11:43:00,
2013-03-24 05:52:00,3.0,-99.9,-100.00,WSW,244,7.0,14.0,-999,-99.99,,,-99.99,,2013-03-24 11:52:00,
2013-03-24 06:00:00,3.0,-99.9,-100.00,WSW,240,7.0,12.0,-999,-99.99,,,-99.99,,2013-03-24 12:00:00,
2013-03-24 06:33:00,3.0,-99.9,-100.00,WSW,240,7.0,12.0,-999,-99.99,,,-99.99,,2013-03-24 12:33:00,
2013-03-24 06:42:00,3.0,-99.9,-100.00,WSW,240,7.0,12.0,-999,-99.99,,,-99.99,,2013-03-24 12:42:00,
2013-03-24 06:53:00,3.0,-99.9,-100.00,WSW,240,7.0,12.0,-999,-99.99,,,-99.99,,2013-03-24 12:53:00,
2013-03-24 07:00:00,3.0,-99.9,-100.00,SW,235,9.0,14.0,-999,-99.99,,,-99.99,,2013-03-24 13:00:00,
2013-03-24 07:33:00,3.0,-99.9,-100.00,SW,235,9.0,14.0,-999,-99.99,,,-99.99,,2013-03-24 13:33:00,
2013-03-24 07:43:00,3.0,-99.9,-100.00,SW,235,9.0,14.0,-999,-99.99,,,-99.99,,2013-03-24 13:43:00,
2013-03-24 07:53:00,3.0,-99.9,-100.00,SW,235,9.0,14.0,-999,-99.99,,,-99.99,,2013-03-24 13:53:00,
2013-03-24 08:00:00,3.0,-99.9,-100.00,SW,235,8.0,13.0,-999,-99.99,,,-99.99,,2013-03-24 14:00:00,
2013-03-24 08:33:00,3.0,-99.9,-100.00,SW,235,8.0,13.0,-999,-99.99,,,-99.99,,2013-03-24 14:33:00,
2013-03-24 08:43:00,3.0,-99.9,-100.00,SW,235,8.0,13.0,-999,-99.99,,,-99.99,,2013-03-24 14:43:00,
2013-03-24 08:53:00,3.0,-99.9,-100.00,SW,235,8.0,13.0,-999,-99.99,,,-99.99,,2013-03-24 14:53:00,
2013-03-24 09:00:00,4.0,-99.9,-100.00,SW,231,7.0,13.0,-999,-99.99,,,-99.99,,2013-03-24 15:00:00,
2013-03-24 09:33:00,4.0,-99.9,-100.00,SW,231,7.0,13.0,-999,-99.99,,,-99.99,,2013-03-24 15:33:00,
2013-03-24 09:44:00,4.0,-99.9,-100.00,SW,231,7.0,13.0,-999,-99.99,,,-99.99,,2013-03-24 15:44:00,
2013-03-24 09:53:00,4.0,-99.9,-100.00,SW,231,7.0,13.0,-999,-99.99,,,-99.99,,2013-03-24 15:53:00,
2013-03-24 10:00:00,6.0,-99.9,-100.00,SW,233,6.0,12.0,-999,-99.99,,,-99.99,,2013-03-24 16:00:00,
2013-03-24 10:33:00,6.0,-99.9,-100.00,SW,233,6.0,12.0,-999,-99.99,,,-99.99,,2013-03-24 16:33:00,
2013-03-24 10:43:00,6.0,-99.9,-100.00,SW,233,6.0,12.0,-999,-99.99,,,-99.99,,2013-03-24 16:43:00,
2013-03-24 10:53:00,6.0,-99.9,-100.00,SW,233,6.0,12.0,-999,-99.99,,,-99.99,,2013-03-24 16:53:00,
2013-03-24 11:00:00,8.0,-99.9,-100.00,WSW,237,4.0,8.0,-999,-99.99,,,-99.99,,2013-03-24 17:00:00,
2013-03-24 11:33:00,8.0,-99.9,-100.00,WSW,237,4.0,8.0,-999,-99.99,,,-99.99,,2013-03-24 17:33:00,
2013-03-24 11:43:00,8.0,-99.9,-100.00,WSW,237,4.0,8.0,-999,-99.99,,,-99.99,,2013-03-24 17:43:00,
2013-03-24 11:53:00,8.0,-99.9,-100.00,WSW,237,4.0,8.0,-999,-99.99,,,-99.99,,2013-03-24 17:53:00,
2013-03-24 12:00:00,10.0,-99.9,-100.00,WSW,243,4.0,9.0,-999,-99.99,,,-99.99,,2013-03-24 18:00:00,
2013-03-24 12:33:00,10.0,-99.9,-100.00,WSW,243,4.0,9.0,-999,-99.99,,,-99.99,,2013-03-24 18:33:00,
2013-03-24 12:43:00,10.0,-99.9,-100.00,WSW,243,4.0,9.0,-999,-99.99,,,-99.99,,2013-03-24 18:43:00,
2013-03-24 12:53:00,10.0,-99.9,-100.00,WSW,243,4.0,9.0,-999,-99.99,,,-99.99,,2013-03-24 18:53:00,
2013-03-24 13:00:00,11.0,-99.9,-100.00,WSW,239,5.0,11.0,-999,-99.99,,,-99.99,,2013-03-24 19:00:00,
2013-03-24 13:33:00,11.0,-99.9,-100.00,WSW,239,5.0,11.0,-999,-99.99,,,-99.99,,2013-03-24 19:33:00,
2013-03-24 13:43:00,11.0,-99.9,-100.00,WSW,239,5.0,11.0,-999,-99.99,,,-99.99,,2013-03-24 19:43:00,
2013-03-24 13:53:00,11.0,-99.9,-100.00,WSW,239,5.0,11.0,-999,-99.99,,,-99.99,,2013-03-24 19:53:00,
2013-03-24 14:00:00,12.0,-99.9,-100.00,WSW,239,4.0,11.0,-999,-99.99,,,-99.99,,2013-03-24 20:00:00,
2013-03-24 14:33:00,12.0,-99.9,-100.00,WSW,239,4.0,11.0,-999,-99.99,,,-99.99,,2013-03-24 20:33:00,
2013-03-24 14:43:00,12.0,-99.9,-100.00,WSW,239,4.0,11.0,-999,-99.99,,,-99.99,,2013-03-24 20:43:00,
2013-03-24 14:53:00,12.0,-99.9,-100.00,WSW,239,4.0,11.0,-999,-99.99,,,-99.99,,2013-03-24 20:53:00,
2013-03-24 15:00:00,13.0,-99.9,-100.00,WSW,240,5.0,11.0,-999,-99.99,,,-99.99,,2013-03-24 21:00:00,
2013-03-24 15:33:00,13.0,-99.9,-100.00,WSW,240,5.0,11.0,-999,-99.99,,,-99.99,,2013-03-24 21:33:00,
2013-03-24 15:43:00,13.0,-99.9,-100.00,WSW,240,5.0,11.0,-999,-99.99,,,-99.99,,2013-03-24 21:43:00,
2013-03-24 15:53:00,13.0,-99.9,-100.00,WSW,240,5.0,11.0,-999,-99.99,,,-99.99,,2013-03-24 21:53:00,
2013-03-24 16:00:00,13.0,-99.9,-100.00,SW,236,4.0,11.0,-999,-99.99,,,-99.99,,2013-03-24 22:00:00,
2013-03-24 16:33:00,13.0,-99.9,-100.00,SW,236,4.0,11.0,-999,-99.99,,,-99.99,,2013-03-24 22:33:00,
2013-03-24 16:43:00,13.0,-99.9,-100.00,SW,236,4.0,11.0,-999,-99.99,,,-99.99,,2013-03-24 22:43:00,
2013-03-24 16:53:00,13.0,-99.9,-100.00,SW,236,4.0,11.0,-999,-99.99,,,-99.99,,2013-03-24 22:53:00,
2013-03-24 17:00:00,15.0,-99.9,-100.00,WSW,239,3.0,7.0,-999,-99.99,,,-99.99,,2013-03-24 23:00:00,
2013-03-24 17:32:00,15.0,-99.9,-100.00,WSW,239,3.0,7.0,-999,-99.99,,,-99.99,,2013-03-24 23:32:00,
2013-03-24 17:43:00,15.0,-99.9,-100.00,WSW,239,3.0,7.0,-999,-99.99,,,-99.99,,2013-03-24 23:43:00,
2013-03-24 17:53:00,15.0,-99.9,-100.00,WSW,239,3.0,7.0,-999,-99.99,,,-99.99,,2013-03-24 23:53:00,
2013-03-24 18:00:00,16.0,-99.9,-100.00,SW,228,3.0,8.0,-999,-99.99,,,-99.99,,2013-03-25 00:00:00,
2013-03-24 18:33:00,16.0,-99.9,-100.00,SW,228,3.0,8.0,-999,-99.99,,,-99.99,,2013-03-25 00:33:00,
2013-03-24 18:43:00,16.0,-99.9,-100.00,SW,228,3.0,8.0,-999,-99.99,,,-99.99,,2013-03-25 00:43:00,
2013-03-24 18:53:00,16.0,-99.9,-100.00,SW,228,3.0,8.0,-999,-99.99,,,-99.99,,2013-03-25 00:53:00,
2013-03-24 19:00:00,13.0,-99.9,-100.00,SW,228,5.0,9.0,-999,-99.99,,,-99.99,,2013-03-25 01:00:00,
2013-03-24 19:32:00,13.0,-99.9,-100.00,SW,228,5.0,9.0,-999,-99.99,,,-99.99,,2013-03-25 01:32:00,
2013-03-24 19:42:00,13.0,-99.9,-100.00,SW,228,5.0,9.0,-999,-99.99,,,-99.99,,2013-03-25 01:42:00,
2013-03-24 19:53:00,13.0,-99.9,-100.00,SW,228,5.0,9.0,-999,-99.99,,,-99.99,,2013-03-25 01:53:00,
2013-03-24 20:00:00,9.0,-99.9,-100.00,South,176,2.0,6.0,-999,-99.99,,,-99.99,,2013-03-25 02:00:00,
2013-03-24 20:33:00,9.0,-99.9,-100.00,South,176,2.0,6.0,-999,-99.99,,,-99.99,,2013-03-25 02:33:00,
2013-03-24 20:43:00,9.0,-99.9,-100.00,South,176,2.0,6.0,-999,-99.99,,,-99.99,,2013-03-25 02:43:00,
2013-03-24 20:53:00,9.0,-99.9,-100.00,South,176,2.0,6.0,-999,-99.99,,,-99.99,,2013-03-25 02:53:00,
2013-03-24 21:00:00,8.0,-99.9,-100.00,ESE,122,3.0,7.0,-999,-99.99,,,-99.99,,2013-03-25 03:00:00,
2013-03-24 21:34:00,8.0,-99.9,-100.00,ESE,122,3.0,7.0,-999,-99.99,,,-99.99,,2013-03-25 03:34:00,
2013-03-24 21:43:00,8.0,-99.9,-100.00,ESE,122,3.0,7.0,-999,-99.99,,,-99.99,,2013-03-25 03:43:00,
2013-03-24 21:53:00,8.0,-99.9,-100.00,ESE,122,3.0,7.0,-999,-99.99,,,-99.99,,2013-03-25 03:53:00,
2013-03-24 22:00:00,9.0,-99.9,-100.00,SW,225,4.0,9.0,-999,-99.99,,,-99.99,,2013-03-25 04:00:00,
2013-03-24 22:33:00,9.0,-99.9,-100.00,SW,225,4.0,9.0,-999,-99.99,,,-99.99,,2013-03-25 04:33:00,
2013-03-24 22:43:00,9.0,-99.9,-100.00,SW,225,4.0,9.0,-999,-99.99,,,-99.99,,2013-03-25 04:43:00,
2013-03-24 22:53:00,9.0,-99.9,-100.00,SW,225,4.0,9.0,-999,-99.99,,,-99.99,,2013-03-25 04:53:00,
2013-03-24 23:00:00,10.0,-99.9,-100.00,WSW,244,3.0,7.0,-999,-99.99,,,-99.99,,2013-03-25 05:00:00,
2013-03-24 23:33:00,10.0,-99.9,-100.00,WSW,244,3.0,7.0,-999,-99.99,,,-99.99,,2013-03-25 05:33:00,
2013-03-24 23:43:00,10.0,-99.9,-100.00,WSW,244,3.0,7.0,-999,-99.99,,,-99.99,,2013-03-25 05:43:00,
2013-03-24 23:53:00,10.0,-99.9,-100.00,WSW,244,3.0,7.0,-999,-99.99,,,-99.99,,2013-03-25 05:53:00,